Regional Weather Roundup
Issued by NWS

Home | Current Version | Previous Version | Graphics & Text | Print | Product List | Glossary On
Versions: 1 2 3 4 5 6 7 8 9 10 11 12 13 14 15 16 17 18 19 20 21 22 23 24 25 26 27 28 29 30 31 32 33 34 35 36 37 38 39 40 41 42 43 44 45 46 47 48 49 50
000
ASUS43 KLSX 031407
RWRMO

WEATHER SUMMARY FOR MISSOURI
NATIONAL WEATHER SERVICE SPRINGFIELD MO
900 AM CDT FRI JUL 03 2015

NOTE: "FAIR" INDICATES FEW OR NO CLOUDS BELOW 12,000 FEET WITH NO
       SIGNIFICANT WEATHER AND/OR OBSTRUCTIONS TO VISIBILITY.
       CURRENT SKY AND/OR WEATHER CONDITIONS ARE NOT AVAILABLE FOR
       CHILLICOTHE AND FARMINGTON.

MOZ001>031-035>038-043-044-053-054-031500-
...NORTHERN AND WESTERN MISSOURI...

CITY           SKY/WX    TMP DP  RH WIND       PRES   REMARKS
KANSAS CTY INT CLOUDY    66  62  87 NE8       29.96R
KANSAS C DTWN  CLOUDY    70  63  78 NE8       29.95R
LEE`S SUMMIT   PTSUNNY   69  62  78 NE9       29.96R
ST JOSEPH      MOSUNNY   68  61  78 NE5       29.98R
CHILLICOTHE      N/A     70  61  73 VRB3      29.99R
KIRKSVILLE     SUNNY     68  61  78 NE6       29.98S

$$
MOZ066>068-077>081-088>096-101>105-031500-
...SOUTHWEST MISSOURI...

CITY           SKY/WX    TMP DP  RH WIND       PRES   REMARKS
SPRINGFIELD    PTSUNNY   73  69  87 SW5       29.93R
JOPLIN         CLOUDY    72  70  93 SW5       29.93R FOG

$$
MOZ032>034-039>042-045>050-055>058-069>072-031500-
...CENTRAL MISSOURI...

CITY           SKY/WX    TMP DP  RH WIND       PRES   REMARKS
COLUMBIA       MOSUNNY   71  62  73 NE5       29.94S
JEFFERSON CITY MOSUNNY   72  62  71 CALM      29.92F
ROLLA          MOSUNNY   69  64  84 N3        29.92S
SEDALIA        CLOUDY    70  63  78 E5        29.96R
WHITEMAN AFB   PTSUNNY   69  64  84 NE7       29.94R
WARRENSBURG    CLOUDY    68  63  83 NE6       29.95R
OSAGE BEACH    CLOUDY    68  64  88 CALM      29.93S

$$
MOZ051-052-059>065-031500-
...EAST CENTRAL MISSOURI...

CITY           SKY/WX    TMP DP  RH WIND       PRES   REMARKS
ST LOUIS INTL  MOSUNNY   72  63  73 NW6       29.92S
SPIRIT OF STL  MOSUNNY   71  65  81 N6        29.90F
ST CHARLES     SUNNY     70  64  81 N6        29.91S

$$
MOZ072>076-082>087-097>100-106>115-031500-
...SOUTH CENTRAL AND SOUTHEAST MISSOURI...

CITY           SKY/WX    TMP DP  RH WIND       PRES   REMARKS
CAPE GIRARDEAU SUNNY     73  68  84 CALM      29.89R
FARMINGTON     CLOUDY    68  63  83 CALM      29.96R
POPLAR BLUFF   CLOUDY    73  68  84 CALM      29.91R
WEST PLAINS    CLOUDY    71  67  87 CALM      29.95R FOG

$$


USA.gov is the U.S. government's official web portal to all federal, state and local government web resources and services.